Regional Weather Roundup
Issued by NWS

Home | Current Version | Previous Version | Graphics & Text | Print | Product List | Glossary Off
Versions: 1 2 3 4 5 6 7 8 9 10 11 12 13 14 15 16 17 18 19 20 21 22 23 24 25 26 27 28 29 30 31 32 33 34 35 36 37 38 39 40 41 42 43 44 45 46 47 48 49 50

000
ASUS43 KMKX 220521
RWRWI

WISCONSIN REGIONAL WEATHER ROUNDUP
NATIONAL WEATHER SERVICE MILWAUKEE/SULLIVAN WI
1200 AM CDT FRI MAY 22 2015

NOTE: "FAIR" INDICATES FEW OR NO CLOUDS BELOW 12,000 FEET WITH NO
SIGNIFICANT WEATHER AND/OR OBSTRUCTIONS TO VISIBILITY.

WIZ001-002-006>008-014>016-023>028-220600-
NORTHWEST WISCONSIN

CITY           SKY/WX    TMP DP  RH WIND       PRES   REMARKS
SUPERIOR ARPT  CLEAR     46  34  63 CALM      30.09R
ASHLAND          N/A     38  37  97 CALM      30.09R
HAYWARD        CLEAR     43  35  73 CALM      30.08R
SIREN          CLEAR     47  35  63 CALM      30.10R
CUMBERLAND     CLEAR     48  34  57 NW6       30.08S
RICE LAKE      CLEAR     45  40  83 CALM      30.09R
CHETEK         CLEAR     47  39  73 CALM      30.08R
LADYSMITH      CLEAR     43  37  79 CALM      30.09R
EAU CLAIRE     CLEAR     47  40  76 CALM      30.06R
MENOMONIE      CLEAR     54  37  53 W3        30.07R
NEW RICHMOND   CLEAR     51  35  54 NW5       30.09S
OSCEOLA        CLEAR     46  39  77 SE3       30.12R
$$

WIZ003>005-009-010-017-018-220600-
NORTH CENTRAL WISCONSIN

CITY           SKY/WX    TMP DP  RH WIND       PRES   REMARKS
MANITOWISH WTR CLEAR     37  35  92 CALM      30.07R
ARBOR VITAE    CLEAR     41  35  78 CALM      30.07R
WOODRUFF       CLEAR     41  35  78 CALM      30.07R
RHINELANDER    CLEAR     38  31  76 CALM      30.07R
EAGLE RIVER    CLEAR     36  31  81 CALM      30.06R
LAND O LAKES   CLEAR     37  30  76 CALM      30.09R
PHILLIPS       CLEAR     39  36  88 CALM      30.07R
TOMAHAWK       CLEAR     34  31  88 CALM      30.07R
MEDFORD        CLEAR     42  35  79 N3        30.06R
MERRILL        CLEAR     39  34  82 CALM      30.07R
$$

WIZ029-030-035-036-043>047-220600-
CENTRAL WISCONSIN

CITY           SKY/WX    TMP DP  RH WIND       PRES   REMARKS
WAUSAU         CLEAR     46  35  65 E5        30.05R
MOSINEE        CLEAR     45  32  61 E3        30.07R
MARSHFIELD     CLEAR     52  29  41 NE3       30.05R
STEVENS POINT  CLEAR     47  36  65 CALM      30.06S
WAUPACA        CLEAR     48  34  57 CALM      30.06S
WAUTOMA        CLEAR     51  37  58 CALM      30.07R
WISC RAPIDS    CLEAR     50  34  54 E6        30.07R
CAMP DOUGLAS   CLEAR     42  40  91 VRB2      30.04R
$$

WIZ011>013-019>022-031-037>040-048>050-220600-
NORTHEAST WISCONSIN

CITY           SKY/WX    TMP DP  RH WIND       PRES   REMARKS
ANTIGO         CLEAR     42  32  68 SE5       30.07R
SHAWANO        CLEAR     43  38  82 CALM      30.07R
OCONTO         CLEAR     36  36  98 CALM      30.08R
STURGEON BAY   CLEAR     43  28  56 CALM      30.10R
GREEN BAY      CLEAR     43  35  73 E5        30.07R
MANITOWOC      MOCLDY    44  33  65 N5        30.08R
APPLETON       CLEAR     46  30  53 E5        30.06F
CLINTONVILLE   CLEAR     45  37  76 CALM      30.06R
OSHKOSH        CLEAR     51  30  44 E8        30.06R
$$

WIZ032>034-041-042-053>061-220600-
SOUTHWEST WISCONSIN

CITY           SKY/WX    TMP DP  RH WIND       PRES   REMARKS
LA CROSSE      CLEAR     52  45  77 N3        30.05R
SPARTA         CLEAR     43  39  86 CALM      30.07R
VIROQUA        CLEAR     54  38  55 N6        30.06R
BOSCOBEL       CLEAR     48  40  73 CALM      30.05R
PRAIRIE DU CHI CLEAR     49  40  71 CALM      30.05S
PLATTEVILLE    CLEAR     56  36  47 W5        30.04R
$$

WIZ056-057-062-063-064-067-068-220600-
SOUTH CENTRAL WISCONSIN

CITY           SKY/WX    TMP DP  RH WIND       PRES   REMARKS
REEDSBURG      PTCLDY    53  39  59 CALM      30.05R
BARABOO/DELLS  CLEAR     54  35  48 NE9       30.05R
LONE ROCK      CLEAR     49  41  74 SW6       30.04R
MINERAL POINT  CLEAR     55  34  44 NW3       30.04R
MADISON        CLEAR     56  38  50 N9        30.03R
MIDDLETON      CLEAR     57  36  44 N7        30.03S
WATERTOWN      CLEAR     50  42  73 NE10      30.04R
MONROE         CLEAR     57  41  54 W10       30.02R
JANESVILLE     CLEAR     55  41  58 CALM      30.00F
$$

WIZ051-052-058>065-066-070>072-220600-
SOUTHEAST WISCONSIN

CITY           SKY/WX    TMP DP  RH WIND       PRES   REMARKS
MILWAUKEE      PTCLDY    48  37  65 N13       30.05R
WAUKESHA       PTCLDY    46  37  71 NE8       30.06R
MILWAUKEE/TIMM PTCLDY    46  34  61 NE9       30.07R
RACINE         CLOUDY    50  43  77 N16       30.05F
BURLINGTON     PTCLDY    55  42  62 NE10      30.02R
KENOSHA        CLOUDY    53  50  89 CALM      30.02S
FOND DU LAC    CLEAR     48  30  49 E3        30.07R
SHEBOYGAN      CLEAR     44  31  60 N5        30.07R
WEST BEND      MOCLDY    48  32  53 NE5       30.06S
JUNEAU         PTCLDY    50  32  50 NE12      30.07R
$$

LSZ147-162-220600-
LAKE SUPERIOR

STATION/POSITION TIME  TEMP    WIND        PRES    WAVE
                       AIR SEA DIR/SP/G            HT/PER
                 (UTC) (F)     (DEG/KT/KT) (MB)    (FT/S)
W MID LAKE BUOY  0450   40 36   60/  6/  6   N/A     0
DEVILS ISLAND    0500   55      10/ 15/ 15   N/A
PORT WING        0400   47     150/  2/  3   N/A
SAXON HARBOR     0400   43     200/  3/  4   N/A
$$

LMZ867-665-643>646-220600-
LAKE MICHIGAN

STATION/POSITION TIME  TEMP    WIND        PRES    WAVE
                       AIR SEA DIR/SP/G            HT/PER
                 (UTC) (F)     (DEG/KT/KT) (MB)    (FT/S)
CHAMBERS ISLAND  0400   49      20/  7/ 10   N/A
N MID LAKE BUOY  0450   41 36  290/  6/  8   N/A     1/ 4
NORTHPORT PIER   0340   49     360/  6/  9   N/A
SISTER BAY       0417   45        CALM       N/A
KEWAUNEE LAKESHO 0400          350/  1/  3   N/A
SHEBOYGAN LAKESH 0500           20/ 10/ 12   N/A
PORT WASHINGTON  0400   51      20/  7/ 12   N/A
ATWATER BUOY     0400   47 44  340/ 12/ 14   N/A
MILWAUKEE LAKESH 0400   51     330/  7/ 10   N/A
S MID LAKE BUOY  0450   44 38  270/  4/  8   N/A     1/ 3
KENOSHA   LAKESH 0500   51     350/  2/  5   N/A
$$

TC  - TEMPERATURE IN CELSIUS
VSB - VISIBILITY IN STATUTE MILES
WCI - WIND CHILL INDEX
HX  - HEAT INDEX



USA.gov is the U.S. government's official web portal to all federal, state and local government web resources and services.